Location: Nairn
(57.5833°N, 3.8667°W)
Time: 02:34:17
(UTC+00:00)

Vanguard 2 Rocket - Visible Passes

Search period start: 05 October 2022 00:00
Search period end: 15 October 2022 00:00
Orbit: 553 x 3323 km, 32.9° (Epoch: 04 October)

Date Brightness Start Highest point End Pass type
(mag) Time Alt. Az. Time Alt. Az. Time Alt. Az.
05 Oct 10.4 20:50:55 10° S 20:52:20 11° S 20:52:20 11° S visible
06 Oct 10.4 19:54:19 10° SSE 19:55:43 10° SSE 19:55:59 10° SSE visible
06 Oct 10.4 21:59:42 10° SSW 22:01:46 13° SSW 22:01:46 13° SSW visible
07 Oct 10.2 20:58:56 10° SSW 21:05:21 16° S 21:05:21 16° S visible
08 Oct 10.2 19:59:00 10° S 20:07:38 15° SSE 20:08:52 15° SSE visible
08 Oct 10.3 22:09:59 10° SW 22:14:38 17° SSW 22:14:38 17° SSW visible
09 Oct 10.3 19:00:33 10° SSE 19:06:58 13° SSE 19:12:19 10° SE visible
09 Oct 10.1 21:08:37 10° SSW 21:18:05 21° S 21:18:05 21° S visible
09 Oct 10.6 23:23:02 10° SW 23:23:51 11° SW 23:23:51 11° SW visible
10 Oct 10.1 20:07:51 10° SSW 20:19:30 20° SSE 20:21:29 20° SSE visible
10 Oct 10.2 22:20:52 10° SW 22:27:15 19° SSW 22:27:15 19° SSW visible
11 Oct 10.2 19:07:56 10° S 19:18:41 18° SSE 19:24:48 14° SE visible
11 Oct 10.0 21:19:06 10° SW 21:30:33 24° S 21:30:33 24° S visible
11 Oct 10.6 23:34:40 10° WSW 23:36:19 12° SW 23:36:19 12° SW visible
12 Oct 10.4 18:09:20 10° S 18:17:54 14° SE 18:25:47 10° ESE visible
12 Oct 10.0 20:17:50 10° SSW 20:31:21 24° SSE 20:33:49 23° SSE visible
12 Oct 10.2 22:32:11 10° SW 22:39:35 21° SW 22:39:35 21° SW visible
13 Oct 10.1 19:17:15 10° SSW 19:30:22 22° SSE 19:37:03 18° SE visible
13 Oct 10.0 21:30:07 10° SW 21:42:47 26° S 21:42:47 26° S visible
13 Oct 10.6 23:46:41 10° WSW 23:48:32 13° WSW 23:48:32 13° WSW visible
14 Oct 10.3 18:17:31 10° S 18:29:25 19° SSE 18:40:12 10° ESE visible
14 Oct 9.9 20:28:30 10° SW 20:43:10 27° S 20:45:57 26° SSE visible
14 Oct 10.3 22:43:51 10° WSW 22:51:41 21° SW 22:51:41 21° SW visible
